Location: Trebic
(49.2170°N, 15.8830°E)
Time: 00:06:14
(UTC+02:00)

Transit 2A Rocket - Pass Details

Date: 31 July 2019
Orbit: 590 x 913 km, 66.7° (Epoch: 24 August)

Event Time Altitude Azimuth Distance (km) Brightness Sun altitude
Rises 10:38:44 0° 320° (NW) 3,135 7.8 47.7°
Reaches altitude 10° 10:41:15 10° 314° (NW) 2,157 7.0 48.0°
Maximum altitude 10:45:51 44° 243° (WSW) 904 5.7 48.6°
Drops below altitude 10° 10:50:05 10° 172° (S) 1,985 7.8 49.2°
Sets 10:52:20 0° 165° (SSE) 2,857 8.4 49.5°
